| time (UTC) | temp F | wind direction | speed MPH | gust MPH | rain 1hr in | rain 24hr in | rain mn in | humidity % | barometer mb |
| 20260508203006 | 57 | 90 | 0.0 | 0.0 | 0.00 | 0.00 | 0.00 | 47 | 1008.4 |
| 20260508201504 | 58 | 283 | 0.0 | 0.0 | 0.00 | 0.00 | 0.00 | 46 | 1008.4 |
| 20260508200004 | 58 | 300 | 0.0 | 0.0 | 0.00 | 0.00 | 0.00 | 43 | 1008.0 |
| 20260508194504 | 59 | 68 | 0.0 | 0.0 | 0.00 | 0.00 | 0.00 | 42 | 1007.9 |
| 20260508193003 | 59 | 225 | 0.0 | 0.0 | 0.00 | 0.00 | 0.00 | 39 | 1007.6 |
| 20260508191505 | 60 | 338 | 0.0 | 0.0 | 0.00 | 0.00 | 0.00 | 38 | 1007.6 |
| 20260508190002 | 61 | 322 | 0.0 | 0.0 | 0.00 | 0.00 | 0.00 | 37 | 1007.6 |
| 20260508184501 | 60 | 221 | 0.0 | 0.0 | 0.00 | 0.00 | 0.00 | 39 | 1007.5 |
| 20260508183003 | 60 | 264 | 0.0 | 0.0 | 0.00 | 0.00 | 0.00 | 40 | 1007.5 |
| 20260508181608 | 61 | 304 | 0.0 | 0.0 | 0.00 | 0.00 | 0.00 | 38 | 1007.5 |
| 20260508180100 | 61 | 290 | 0.0 | 0.0 | 0.00 | 0.00 | 0.00 | 38 | 1007.5 |
| 20260508174600 | 62 | 207 | 0.0 | 0.0 | 0.00 | 0.00 | 0.00 | 36 | 1007.5 |
| 20260508173058 | 62 | 279 | 0.0 | 0.0 | 0.00 | 0.00 | 0.00 | 36 | 1007.6 |
| 20260508171556 | 62 | 202 | 0.0 | 0.0 | 0.00 | 0.00 | 0.00 | 37 | 1007.7 |
| 20260508170058 | 61 | 232 | 0.0 | 0.0 | 0.00 | 0.00 | 0.00 | 37 | 1007.8 |
| 20260508164602 | 61 | 171 | 0.0 | 0.0 | 0.00 | 0.00 | 0.00 | 39 | 1007.8 |
| 20260508163051 | 60 | 260 | 0.0 | 0.0 | 0.00 | 0.00 | 0.00 | 40 | 1007.9 |
| 20260508161551 | 59 | 237 | 0.0 | 0.0 | 0.00 | 0.00 | 0.00 | 41 | 1007.9 |
| 20260508160048 | 59 | 233 | 0.0 | 0.0 | 0.00 | 0.00 | 0.00 | 40 | 1008.1 |
| 20260508154546 | 58 | 307 | 0.0 | 0.0 | 0.00 | 0.00 | 0.00 | 41 | 1008.3 |
| 20260508153043 | 58 | 222 | 0.0 | 0.0 | 0.00 | 0.00 | 0.00 | 41 | 1008.5 |
| 20260508151541 | 57 | 310 | 0.0 | 0.0 | 0.00 | 0.00 | 0.00 | 41 | 1008.6 |
| 20260508150042 | 57 | 299 | 0.0 | 0.0 | 0.00 | 0.00 | 0.00 | 40 | 1008.6 |
| 20260508144555 | 56 | 313 | 0.0 | 0.0 | 0.00 | 0.00 | 0.00 | 41 | 1008.6 |
| 20260508143036 | 56 | 232 | 0.0 | 0.0 | 0.00 | 0.00 | 0.00 | 42 | 1008.7 |
| 20260508141537 | 55 | 5 | 0.0 | 0.0 | 0.00 | 0.00 | 0.00 | 42 | 1008.8 |
| 20260508140039 | 55 | 203 | 0.0 | 0.0 | 0.00 | 0.00 | 0.00 | 42 | 1008.9 |
| 20260508134537 | 54 | 221 | 0.0 | 0.0 | 0.00 | 0.00 | 0.00 | 45 | 1009.0 |
| 20260508133042 | 54 | 268 | 0.0 | 0.0 | 0.00 | 0.00 | 0.00 | 46 | 1009.1 |
| 20260508131526 | 53 | 338 | 0.0 | 0.0 | 0.00 | 0.00 | 0.00 | 47 | 1009.1 |
| 20260508130022 | 52 | 30 | 0.0 | 0.0 | 0.00 | 0.00 | 0.00 | 49 | 1009.1 |
| 20260508124518 | 51 | 325 | 0.0 | 0.0 | 0.00 | 0.00 | 0.00 | 52 | 1009.2 |
| 20260508123014 | 49 | 265 | 0.0 | 0.0 | 0.00 | 0.00 | 0.00 | 56 | 1009.3 |
| 20260508121514 | 48 | 271 | 0.0 | 0.0 | 0.00 | 0.00 | 0.00 | 58 | 1009.3 |
| 20260508120013 | 47 | 315 | 0.0 | 0.0 | 0.00 | 0.00 | 0.00 | 60 | 1009.2 |
| 20260508114513 | 45 | 306 | 0.0 | 0.0 | 0.00 | 0.07 | 0.00 | 66 | 1009.2 |
| 20260508113011 | 42 | 5 | 0.0 | 0.0 | 0.00 | 0.07 | 0.00 | 80 | 1009.2 |
| 20260508111510 | 40 | 5 | 0.0 | 0.0 | 0.00 | 0.07 | 0.00 | 87 | 1009.1 |
| 20260508110020 | 39 | 5 | 0.0 | 0.0 | 0.00 | 0.07 | 0.00 | 88 | 1009.1 |
| 20260508104507 | 38 | 5 | 0.0 | 0.0 | 0.00 | 0.10 | 0.00 | 87 | 1008.9 |
| 20260508103007 | 38 | 5 | 0.0 | 0.0 | 0.00 | 0.10 | 0.00 | 87 | 1008.8 |
| 20260508101502 | 38 | 5 | 0.0 | 0.0 | 0.00 | 0.10 | 0.00 | 87 | 1008.7 |
| 20260508100002 | 37 | 5 | 0.0 | 0.0 | 0.00 | 0.10 | 0.00 | 86 | 1008.6 |
| 20260508094559 | 37 | 5 | 0.0 | 0.0 | 0.00 | 0.13 | 0.00 | 85 | 1008.4 |
| 20260508093058 | 37 | 5 | 0.0 | 0.0 | 0.00 | 0.13 | 0.00 | 85 | 1008.3 |
| 20260508091609 | 37 | 5 | 0.0 | 0.0 | 0.00 | 0.13 | 0.00 | 83 | 1008.2 |
| 20260508090109 | 38 | 5 | 0.0 | 0.0 | 0.00 | 0.13 | 0.00 | 83 | 1008.2 |
| 20260508084551 | 38 | 5 | 0.0 | 0.0 | 0.00 | 0.22 | 0.00 | 81 | 1008.1 |
| 20260508083050 | 39 | 5 | 0.0 | 0.0 | 0.00 | 0.22 | 0.00 | 80 | 1008.1 |
| 20260508081546 | 39 | 5 | 0.0 | 0.0 | 0.00 | 0.22 | 0.00 | 78 | 1007.8 |
| 20260508080043 | 40 | 5 | 0.0 | 0.0 | 0.00 | 0.22 | 0.00 | 76 | 1007.6 |
| 20260508074543 | 41 | 5 | 0.0 | 0.0 | 0.00 | 0.27 | 0.00 | 74 | 1007.3 |
| 20260508073039 | 42 | 5 | 0.0 | 0.0 | 0.00 | 0.27 | 0.00 | 72 | 1007.0 |
| 20260508071545 | 42 | 5 | 0.0 | 0.0 | 0.00 | 0.27 | 0.00 | 70 | 1006.9 |
| 20260508070030 | 43 | 5 | 0.0 | 0.0 | 0.00 | 0.27 | 0.00 | 69 | 1006.6 |
| 20260508064527 | 44 | 5 | 0.0 | 0.0 | 0.00 | 0.27 | 0.00 | 67 | 1006.4 |
| 20260508063023 | 45 | 5 | 0.0 | 0.0 | 0.00 | 0.27 | 0.00 | 67 | 1006.7 |
| 20260508061522 | 45 | 5 | 0.0 | 0.0 | 0.00 | 0.27 | 0.00 | 64 | 1006.6 |
| 20260508060019 | 46 | 5 | 0.0 | 0.0 | 0.00 | 0.27 | 0.00 | 61 | 1006.6 |
| 20260508054518 | 47 | 5 | 0.0 | 0.0 | 0.00 | 0.27 | 0.00 | 59 | 1006.6 |
| 20260508053027 | 47 | 5 | 0.0 | 0.0 | 0.00 | 0.27 | 0.00 | 57 | 1006.7 |
| 20260508051510 | 48 | 5 | 0.0 | 0.0 | 0.00 | 0.27 | 0.00 | 56 | 1006.6 |
| 20260508050008 | 49 | 5 | 0.0 | 0.0 | 0.00 | 0.27 | 0.00 | 55 | 1006.7 |
| 20260508044506 | 49 | 5 | 0.0 | 0.0 | 0.00 | 0.27 | 0.00 | 53 | 1006.9 |
| 20260508043006 | 49 | 5 | 0.0 | 0.0 | 0.00 | 0.27 | 0.00 | 52 | 1006.7 |
| 20260508041504 | 49 | 5 | 0.0 | 0.0 | 0.00 | 0.27 | 0.00 | 52 | 1006.8 |
| 20260508040002 | 49 | 5 | 0.0 | 0.0 | 0.00 | 0.27 | 0.27 | 52 | 1006.8 |
| 20260508034501 | 49 | 237 | 0.0 | 0.0 | 0.00 | 0.27 | 0.27 | 52 | 1006.8 |
| 20260508033002 | 49 | 284 | 0.0 | 0.0 | 0.00 | 0.27 | 0.27 | 54 | 1006.8 |
| 20260508031500 | 49 | 300 | 0.0 | 0.0 | 0.00 | 0.27 | 0.27 | 53 | 1006.9 |
| 20260508030104 | 49 | 301 | 0.0 | 0.0 | 0.00 | 0.27 | 0.27 | 54 | 1007.0 |
| 20260508024607 | 49 | 302 | 0.0 | 0.0 | 0.00 | 0.27 | 0.27 | 54 | 1007.1 |
| 20260508023100 | 50 | 302 | 0.0 | 0.0 | 0.00 | 0.27 | 0.27 | 53 | 1006.9 |
| 20260508021559 | 50 | 302 | 0.0 | 0.0 | 0.00 | 0.27 | 0.27 | 51 | 1007.1 |
| 20260508020059 | 51 | 302 | 0.0 | 0.0 | 0.00 | 0.27 | 0.27 | 51 | 1007.2 |
| 20260508014558 | 51 | 302 | 0.0 | 0.0 | 0.00 | 0.27 | 0.27 | 50 | 1007.0 |
| 20260508013058 | 52 | 302 | 0.0 | 0.0 | 0.00 | 0.27 | 0.27 | 48 | 1006.9 |
| 20260508011601 | 53 | 302 | 0.0 | 0.0 | 0.00 | 0.27 | 0.27 | 47 | 1006.8 |
| 20260508010056 | 53 | 302 | 0.0 | 0.0 | 0.00 | 0.27 | 0.27 | 46 | 1006.6 |
| 20260508004558 | 54 | 302 | 0.0 | 0.0 | 0.00 | 0.28 | 0.27 | 46 | 1006.3 |
| 20260508003104 | 55 | 302 | 0.0 | 0.0 | 0.00 | 0.28 | 0.27 | 45 | 1005.9 |
| 20260508001554 | 56 | 302 | 0.0 | 0.0 | 0.00 | 0.28 | 0.27 | 43 | 1005.8 |
| 20260508000055 | 57 | 302 | 0.0 | 0.0 | 0.00 | 0.28 | 0.27 | 42 | 1005.6 |
| 20260507234553 | 57 | 302 | 0.0 | 0.0 | 0.00 | 0.31 | 0.27 | 40 | 1005.5 |
| 20260507233101 | 58 | 348 | 0.0 | 0.0 | 0.00 | 0.31 | 0.27 | 39 | 1005.4 |
| 20260507231554 | 59 | 102 | 0.0 | 0.0 | 0.00 | 0.31 | 0.27 | 39 | 1005.2 |
| 20260507230051 | 60 | 236 | 0.0 | 0.0 | 0.00 | 0.31 | 0.27 | 37 | 1005.1 |
| 20260507224557 | 60 | 339 | 0.0 | 0.0 | 0.00 | 0.31 | 0.27 | 35 | 1004.9 |
| 20260507223052 | 61 | 319 | 0.0 | 0.0 | 0.00 | 0.31 | 0.27 | 35 | 1004.6 |
| 20260507221550 | 62 | 342 | 0.0 | 0.0 | 0.00 | 0.31 | 0.27 | 35 | 1004.6 |
| 20260507220049 | 62 | 22 | 0.0 | 0.0 | 0.00 | 0.31 | 0.27 | 34 | 1004.5 |
| 20260507214556 | 63 | 306 | 0.0 | 0.0 | 0.00 | 0.31 | 0.27 | 32 | 1004.5 |
| 20260507213101 | 65 | 263 | 0.0 | 0.0 | 0.00 | 0.31 | 0.27 | 33 | 1004.2 |
| 20260507211549 | 65 | 269 | 0.0 | 0.0 | 0.00 | 0.31 | 0.27 | 33 | 1004.2 |
| 20260507210050 | 65 | 212 | 0.0 | 0.0 | 0.00 | 0.31 | 0.27 | 33 | 1004.0 |
| 20260507204547 | 66 | 294 | 0.0 | 0.0 | 0.00 | 0.31 | 0.27 | 32 | 1004.0 |